Military
NORAD ID: 38109
Int'l Code: 2012-014A
Perigee: 1,086.0 km
Apogee: 1,103.8 km
Inclination: 123.0 °
Period: 107.0 minutes
Semi major axis: 7465 km
Launch date: April 3, 2012
Source: United States (US)
Comments: NROL-25 is a classified spy satellite.
Two Line Element Set (TLE):
1 38109U 12014A 12097.24217397 .00000000 00000-0 00000-0 0 06
2 38109 122.9820 224.3613 0011938 300.1552 59.8228 13.45796211 09
Source: SeeSat-L
NASA's NSSDC Master Catalog entry for USA 234